sat.trackr.live / text

‹ back to catalog

COSMOS 2614

NORAD 68764 · 2026-083K

PAYLOAD ACTIVE UNKNOWN

§ Identity

Operator
Country
CIS
Launch date
2026-04-16
Launch site
PLMSC
Launch vehicle
Mass (kg)
RCS (m²)

External: N2YO · Heavens-Above · Gunter

§ Orbital elements

Epoch: 2026-05-24T22:31:15.453984Z

Period
95.64 min
Inclination
97.7744°
Eccentricity
0.0007731
Mean motion
15.05664382 rev/d
Perigee alt
544.1 km
Apogee alt
554.8 km
Semi-major
6,927.6 km
B*
1.4026e-4
RAAN
281.9661°
Arg perigee
96.1246°
Mean anomaly
264.0861°
Rev number
570

§ Raw data

COSMOS 26141 68764U 26083K   26144.93837331  .00001963  00000+0  14026-3 0  99982 68764  97.7744 281.9661 0007731  96.1246 264.0861 15.05664382  5709

JSON: /api/v1/satellites/68764 · /tle

For live sub-satellite position, see the globe view (requires WebGL).

§ Visibility from observer

Set your observer location to see the next 7 days of passes ≥ 10°. The values pass through the URL so the page stays shareable.

No JS? Fill the form by hand. The geolocation button needs JavaScript.